Tracking 29932 objects as of 3-Dec-2024
HD Live streaming from Space Station
objects crossing your sky now

STARLINK-32222

Track STARLINK-32222 now!
10-day predictions
STARLINK-32222 is classified as:


NORAD ID: 60435
Int'l Code: 2024-144L
Perigee: 481.4 km
Apogee: 483.3 km
Inclination: 53.2 °
Period: 94.1 minutes
Semi major axis: 6853 km
RCS: Unknown
Launch date: August 12, 2024
Source: United States (US)
Launch site: AIR FORCE EASTERN TEST RANGE (AFETR)
Your satellite tracking list
Your tracking list is empty




NASA's NSSDC Master Catalog

Two Line Element Set (TLE):
1 60435U 24144L   24337.35365560 -.00000010  00000-0  11809-4 0  9990
2 60435  53.1580 204.6228 0001410  98.6434 261.4727 15.30192305 18520
Source of the keplerian elements: AFSPC